Weather History for Santa Maria, CA

Change the Weather History Date:

Tuesday, March 11, 2014

  Actual Average Record
Temperature  
Mean Temperature 64 °F 54 °F  
Max Temperature 77 °F 65 °F 91 °F (2007)
Min Temperature 51 °F 43 °F 31 °F (1988)
Degree Days  
Heating Degree Days 1 11  
Month to date heating degree days 45 121  
Since 1 July heating degree days 1183 1954  
Cooling Degree Days 0 0  
Month to date cooling degree days 3 0  
Year to date cooling degree days 7 1  
Growing Degree Days 16 (Base 50)    
Moisture  
Dew Point 38 °F    
Average Humidity 45    
Maximum Humidity 67    
Minimum Humidity 23    
Precipitation  
Precipitation 0.00 in 0.10 in 0.95 in (1906)
Month to date precipitation 0.79 1.10  
Year to date precipitation 2.68 6.84  
Since 1 July precipitation 3.18 11.08  
Sea Level Pressure  
Sea Level Pressure 30.00 in    
Wind  
Wind Speed 9 mph (NNE)    
Max Wind Speed 28 mph    
Max Gust Speed 35 mph    
Visibility 10 miles    
Events      
T = Trace of Precipitation, MM = Missing Value Source: NWS Daily Summary

Daily Weather History Graph

Daily Weather History Graph

Search for Another Location

Airport:

Trip Planner

Search our weather history database for the weather conditions in past years. The results will help you decide how hot, cold, wet, or windy it might be!

Date:

Astronomy

Mar. 11, 2014 Rise Set
Actual Time 7:17 AM PDT 7:06 PM PDT
Civil Twilight 6:52 AM PDT 7:31 PM PDT
Nautical Twilight 6:23 AM PDT 8:00 PM PDT
Astronomical Twilight 5:53 AM PDT 8:30 PM PDT
Moon 2:55 PM PDT (3/11) 4:06 AM PDT (3/11)
Length of Visible Light 12h 38m
Length of Day
11h 48m
Waxing Gibbous, 79% of the Moon is Illuminated
Mar 11
Waxing Gibbous
Mar 16
Full
Mar 23
Last Quarter
Mar 30
New
Apr 7
First Quarter

Hourly Weather History & Observations

Time (PDT) Temp. Dew Point Humidity Pressure Visibility Wind Dir Wind Speed Gust Speed Precip Events Conditions
12:51 AM 63.0 °F 33.1 °F 33% 30.07 in 10.0 mi North 15.0 mph - N/A   Clear
1:51 AM 62.1 °F 28.0 °F 28% 30.07 in 10.0 mi North 15.0 mph - N/A   Clear
2:51 AM 63.0 °F 30.0 °F 29% 30.05 in 10.0 mi NNE 20.7 mph 31.1 mph N/A   Clear
3:51 AM 63.0 °F 24.1 °F 23% 30.03 in 10.0 mi North 17.3 mph 28.8 mph N/A   Clear
4:51 AM 62.1 °F 27.0 °F 26% 30.01 in 10.0 mi NNE 21.9 mph - N/A   Clear
5:51 AM 62.1 °F 32.0 °F 32% 30.01 in 10.0 mi NNE 18.4 mph 34.5 mph N/A   Clear
6:51 AM 61.0 °F 34.0 °F 36% 30.01 in 10.0 mi NNE 16.1 mph 32.2 mph N/A   Clear
7:51 AM 61.0 °F 35.1 °F 38% 30.01 in 10.0 mi NNE 17.3 mph 25.3 mph N/A   Mostly Cloudy
8:51 AM 64.0 °F 36.0 °F 35% 30.02 in 10.0 mi NE 6.9 mph - N/A   Mostly Cloudy
9:51 AM 66.9 °F 36.0 °F 32% 30.02 in 10.0 mi NE 9.2 mph - N/A   Mostly Cloudy
10:51 AM 69.1 °F 35.1 °F 29% 30.02 in 10.0 mi ENE 5.8 mph - N/A   Mostly Cloudy
11:51 AM 72.0 °F 35.1 °F 26% 30.01 in 10.0 mi Calm Calm - N/A   Clear
12:51 PM 75.0 °F 35.1 °F 23% 29.99 in 10.0 mi Calm Calm - N/A   Overcast
1:51 PM 75.9 °F 36.0 °F 23% 29.97 in 10.0 mi West 5.8 mph - N/A   Overcast
2:51 PM 75.0 °F 39.0 °F 27% 29.96 in 10.0 mi NW 10.4 mph - N/A   Overcast
3:51 PM 71.1 °F 45.0 °F 39% 29.95 in 10.0 mi WNW 10.4 mph - N/A   Overcast
4:51 PM 69.1 °F 46.9 °F 45% 29.94 in 10.0 mi WNW 5.8 mph - N/A   Overcast
5:51 PM 66.9 °F 46.9 °F 49% 29.95 in 10.0 mi NW 6.9 mph - N/A   Mostly Cloudy
6:51 PM 62.1 °F 46.9 °F 58% 29.96 in 10.0 mi Calm Calm - N/A   Mostly Cloudy
7:51 PM 61.0 °F 46.0 °F 58% 29.96 in 10.0 mi NE 3.5 mph - N/A   Partly Cloudy
8:51 PM 57.0 °F 46.0 °F 67% 29.97 in 10.0 mi South 4.6 mph - N/A   Clear
9:51 PM 55.0 °F 45.0 °F 69% 29.98 in 10.0 mi South 5.8 mph - N/A   Clear
10:51 PM 55.0 °F 42.1 °F 62% 29.98 in 10.0 mi SSE 3.5 mph - N/A   Clear
11:51 PM 54.0 °F 43.0 °F 66% 29.98 in 10.0 mi East 4.6 mph - N/A   Clear